COSMOS 1812

Last updated on Thu Nov 21 2024 00:02:12 GMT+0000 (Coordinated Universal Time)

1 17295U 87003A 24325.47923338 .00022668 00000+0 56733-3 0 9997 2 17295 82.5032 337.6635 0003603 78.3154 281.8496 15.39956446 70501
UTC large
Height (km)
Speed (km/s)
/
Latitude / Longitude
Inclination (degrees)
Orbital Period (minutes)
Azimuth
Elevation
Range (km)
Doppler Factor

Next 0 passes for location: London (51.5072 / 0.1276)

Sorry there are no passes over London.